• In Slovakia
  • List of Countries
  • For 7 days
  • Water Temperature
  • Satellite Maps
  • Weather Map
  • Weather Widgets
  • user-avatar
    Login

    Hourly Weather Zilina

    Today, 18 October, Thursday

    Time Temperature Precipitation Wind Pressure Humidity
    00:00 +14°C° 0.2 mm 1 mps 734 mmHg 65%
    01:00 +14°C° 0 mm 1 mps 734 mmHg 64%
    02:00 +14°C° 0.1 mm 1 mps 734 mmHg 64%
    03:00 +14°C° 0.1 mm 1 mps 734 mmHg 64%
    04:00 +14°C° 0.1 mm 1 mps 734 mmHg 65%
    05:00 +14°C° 0.1 mm 1 mps 734 mmHg 65%
    06:00 +14°C° 0.1 mm 1 mps 734 mmHg 66%
    07:00 +14°C° 0.1 mm 1 mps 734 mmHg 66%
    08:00 +14°C° 0 mm 0 mps 734 mmHg 62%
    09:00 +16°C° 0 mm 0 mps 734 mmHg 58%
    10:00 +17°C° 0 mm 0 mps 734 mmHg 54%
    11:00 +18°C° 0 mm 0 mps 734 mmHg 51%
    12:00 +19°C° 0 mm 0 mps 734 mmHg 48%
    13:00 +20°C° 0 mm 0 mps 734 mmHg 45%
    14:00 +19°C° 0 mm 0 mps 733 mmHg 49%
    15:00 +18°C° 0 mm 0 mps 733 mmHg 54%
    16:00 +17°C° 0 mm 0 mps 733 mmHg 58%
    17:00 +16°C° 0 mm 0 mps 733 mmHg 62%
    18:00 +14°C° 0 mm 0 mps 733 mmHg 66%
    19:00 +13°C° 0 mm 0 mps 733 mmHg 70%
    20:00 +13°C° 0 mm 0 mps 733 mmHg 73%
    21:00 +12°C° 0 mm 0 mps 733 mmHg 75%
    22:00 +12°C° 0 mm 0 mps 734 mmHg 77%
    23:00 +12°C° 0 mm 1 mps 734 mmHg 78%

    Tomorrow, 19 October, Friday

    Time Temperature Precipitation Wind Pressure Humidity
    00:00 +12°C° 0 mm 1 mps 734 mmHg 78%
    01:00 +12°C° 0 mm 1 mps 734 mmHg 79%
    02:00 +12°C° 0 mm 1 mps 734 mmHg 81%
    03:00 +12°C° 0 mm 1 mps 734 mmHg 82%
    04:00 +11°C° 0 mm 1 mps 734 mmHg 84%
    05:00 +11°C° 0.1 mm 1 mps 734 mmHg 85%
    06:00 +11°C° 0.1 mm 1 mps 734 mmHg 87%
    07:00 +11°C° 0.1 mm 1 mps 734 mmHg 88%
    08:00 +13°C° 0 mm 1 mps 735 mmHg 82%
    09:00 +15°C° 0 mm 2 mps 735 mmHg 76%
    10:00 +16°C° 0 mm 2 mps 735 mmHg 70%
    11:00 +17°C° 0.3 mm 2 mps 735 mmHg 68%
    12:00 +18°C° 0.3 mm 2 mps 735 mmHg 66%
    13:00 +18°C° 0.3 mm 2 mps 735 mmHg 64%
    14:00 +17°C° 0.2 mm 2 mps 735 mmHg 68%
    15:00 +17°C° 0.2 mm 2 mps 735 mmHg 72%
    16:00 +16°C° 0.2 mm 2 mps 735 mmHg 76%
    17:00 +15°C° 0 mm 2 mps 735 mmHg 81%
    18:00 +13°C° 0 mm 2 mps 736 mmHg 87%
    19:00 +12°C° 0 mm 2 mps 736 mmHg 92%
    20:00 +12°C° 0 mm 2 mps 736 mmHg 93%
    21:00 +12°C° 0 mm 2 mps 737 mmHg 94%
    22:00 +12°C° 0 mm 2 mps 737 mmHg 95%
    23:00 +10°C° 0 mm 2 mps 737 mmHg 95%

    Day after tomorrow, 20 October, Saturday

    Time Temperature Precipitation Wind Pressure Humidity
    00:00 +10°C° 0 mm 2 mps 737 mmHg 95%
    01:00 +11°C° 0 mm 1 mps 737 mmHg 96%
    02:00 +11°C° 0 mm 1 mps 737 mmHg 96%
    03:00 +11°C° 0 mm 1 mps 737 mmHg 96%
    04:00 +11°C° 0 mm 1 mps 737 mmHg 96%
    05:00 +11°C° 0 mm 1 mps 738 mmHg 96%
    06:00 +10°C° 0 mm 2 mps 738 mmHg 96%
    07:00 +10°C° 0 mm 2 mps 738 mmHg 95%
    08:00 +12°C° 0 mm 2 mps 738 mmHg 90%
    09:00 +13°C° 0 mm 2 mps 739 mmHg 84%
    10:00 +14°C° 0 mm 2 mps 739 mmHg 79%
    11:00 +14°C° 0 mm 2 mps 739 mmHg 77%
    12:00 +15°C° 0 mm 2 mps 739 mmHg 75%
    13:00 +14°C° 0 mm 3 mps 739 mmHg 73%
    14:00 +14°C° 0 mm 2 mps 739 mmHg 74%
    15:00 +14°C° 0 mm 2 mps 739 mmHg 76%
    16:00 +13°C° 0 mm 2 mps 739 mmHg 77%
    17:00 +12°C° 0 mm 2 mps 739 mmHg 81%
    18:00 +10°C° 0 mm 2 mps 739 mmHg 84%
    19:00 +9°C° 0 mm 2 mps 740 mmHg 88%
    20:00 +8°C° 0 mm 2 mps 740 mmHg 88%
    21:00 +7°C° 0 mm 2 mps 740 mmHg 89%
    22:00 +7°C° 0 mm 2 mps 740 mmHg 90%
    23:00 +6°C° 0 mm 2 mps 740 mmHg 91%

    21 October, Sunday

    Time Temperature Precipitation Wind Pressure Humidity
    00:00 +6°C° 0 mm 2 mps 740 mmHg 92%
    01:00 +6°C° 0 mm 1 mps 740 mmHg 93%
    02:00 +5°C° 0 mm 2 mps 740 mmHg 94%
    03:00 +5°C° 0 mm 2 mps 740 mmHg 94%
    04:00 +5°C° 0 mm 2 mps 740 mmHg 94%
    05:00 +5°C° 0 mm 2 mps 740 mmHg 94%
    06:00 +5°C° 0 mm 2 mps 740 mmHg 93%
    07:00 +5°C° 0 mm 2 mps 741 mmHg 93%
    08:00 +7°C° 0 mm 2 mps 741 mmHg 86%
    09:00 +8°C° 0 mm 2 mps 741 mmHg 80%
    10:00 +9°C° 0 mm 2 mps 741 mmHg 74%
    11:00 +10°C° 0 mm 2 mps 740 mmHg 70%
    12:00 +11°C° 0 mm 3 mps 740 mmHg 67%
    13:00 +12°C° 0 mm 3 mps 740 mmHg 64%
    14:00 +12°C° 0 mm 2 mps 740 mmHg 67%
    15:00 +12°C° 0 mm 2 mps 739 mmHg 70%
    16:00 +10°C° 0 mm 2 mps 739 mmHg 72%
    17:00 +9°C° 0 mm 2 mps 739 mmHg 78%
    18:00 +9°C° 0 mm 1 mps 739 mmHg 84%
    19:00 +7°C° 0 mm 1 mps 739 mmHg 90%
    20:00 +7°C° 0 mm 1 mps 739 mmHg 90%
    21:00 +7°C° 0 mm 1 mps 739 mmHg 91%
    22:00 +6°C° 0 mm 1 mps 739 mmHg 92%
    23:00 +6°C° 0 mm 1 mps 739 mmHg 92%

    22 October, Monday

    Time Temperature Precipitation Wind Pressure Humidity
    00:00 +6°C° 0 mm 1 mps 739 mmHg 92%
    01:00 +6°C° 0 mm 1 mps 739 mmHg 93%
    02:00 +6°C° 0 mm 1 mps 738 mmHg 92%
    03:00 +5°C° 0 mm 0 mps 738 mmHg 92%
    04:00 +5°C° 0 mm 0 mps 738 mmHg 92%
    05:00 +5°C° 0 mm 0 mps 738 mmHg 91%
    06:00 +5°C° 0 mm 0 mps 738 mmHg 90%
    07:00 +5°C° 0 mm 0 mps 738 mmHg 89%
    08:00 +8°C° 0 mm 0 mps 738 mmHg 79%
    09:00 +10°C° 0 mm 0 mps 738 mmHg 69%
    10:00 +12°C° 0 mm 0 mps 738 mmHg 59%
    11:00 +13°C° 0 mm 0 mps 738 mmHg 56%
    12:00 +15°C° 0 mm 1 mps 737 mmHg 54%
    13:00 +16°C° 0 mm 1 mps 737 mmHg 51%
    14:00 +15°C° 0 mm 1 mps 736 mmHg 56%
    15:00 +14°C° 0 mm 1 mps 736 mmHg 62%
    16:00 +13°C° 0 mm 1 mps 736 mmHg 67%
    17:00 +12°C° 0 mm 1 mps 736 mmHg 72%
    18:00 +10°C° 0 mm 0 mps 736 mmHg 77%
    19:00 +9°C° 0 mm 0 mps 736 mmHg 82%
    20:00 +8°C° 0 mm 0 mps 736 mmHg 83%
    21:00 +9°C° 0 mm 1 mps 736 mmHg 84%
    22:00 +9°C° 0 mm 1 mps 736 mmHg 85%
    23:00 +9°C° 0.3 mm 1 mps 736 mmHg 87%

    23 October, Tuesday

    Time Temperature Precipitation Wind Pressure Humidity
    00:00 +9°C° 0.3 mm 1 mps 735 mmHg 88%
    01:00 +9°C° 0.3 mm 1 mps 735 mmHg 90%
    02:00 +8°C° 0.3 mm 2 mps 735 mmHg 91%
    03:00 +8°C° 0.3 mm 2 mps 735 mmHg 91%
    04:00 +8°C° 0.3 mm 2 mps 735 mmHg 92%
    05:00 +7°C° 0 mm 2 mps 734 mmHg 92%
    06:00 +7°C° 0 mm 2 mps 734 mmHg 92%
    07:00 +6°C° 0 mm 2 mps 734 mmHg 92%
    08:00 +7°C° 0 mm 2 mps 734 mmHg 84%
    09:00 +9°C° 0 mm 1 mps 733 mmHg 76%
    10:00 +10°C° 0 mm 1 mps 733 mmHg 68%
    11:00 +10°C° 0 mm 1 mps 733 mmHg 67%
    12:00 +10°C° 0 mm 1 mps 732 mmHg 66%
    13:00 +10°C° 0 mm 1 mps 731 mmHg 65%
    14:00 +10°C° 0 mm 1 mps 731 mmHg 67%
    15:00 +9°C° 0 mm 1 mps 730 mmHg 69%
    16:00 +9°C° 0 mm 1 mps 730 mmHg 72%
    17:00 +8°C° 0.2 mm 1 mps 730 mmHg 75%
    18:00 +8°C° 0.2 mm 1 mps 729 mmHg 79%
    19:00 +7°C° 0.2 mm 1 mps 729 mmHg 83%
    20:00 +7°C° 0.1 mm 1 mps 729 mmHg 85%
    21:00 +6°C° 0.1 mm 1 mps 729 mmHg 87%
    22:00 +5°C° 0.1 mm 1 mps 729 mmHg 89%
    23:00 +5°C° 0 mm 1 mps 728 mmHg 90%
    Show more